Location: Kielce
(50.8833°N, 20.6167°E)
Time: 21:53:11
(UTC+02:00)

SR - Pass Details

Date: 28 April 2021
Orbit: 573 x 882 km, 66.7° (Epoch: 09 May)

Event Time Altitude Azimuth Distance (km) Brightness Sun altitude
Rises 05:21:15 0° 181° (S) 3,338 ? -0.2°
Reaches altitude 10° 05:23:52 10° 171° (S) 2,448 ? 0.2°
Maximum altitude 05:28:48 31° 111° (ESE) 1,482 ? 0.9°
Drops below altitude 10° 05:33:54 10° 52° (NE) 2,545 ? 1.7°
Sets 05:36:41 0° 43° (NE) 3,491 ? 2.1°
